Regional Weather Roundup
Issued by NWS

Home | Current Version | Previous Version | Text Only | Print | Product List | Glossary Off
Versions: 1 2 3 4 5 6 7 8 9 10 11 12 13 14 15 16 17 18 19 20 21 22 23 24 25 26 27 28 29 30 31 32 33 34 35 36 37 38 39 40 41 42 43 44 45 46 47 48 49 50

019
ASUS43 KMPX 262001
RWRMN
WEATHER ROUNDUP FOR MINNESOTA
NATIONAL WEATHER SERVICE TWIN CITIES/CHANHASSEN MN
200 PM CST SUN FEB 26 2017


NOTE: "FAIR" INDICATES FEW OR NO CLOUDS BELOW 12,000 FEET WITH NO
SIGNIFICANT WEATHER AND/OR OBSTRUCTIONS TO VISIBILITY. N/A MEANS
CURRENT SKY AND/OR WEATHER CONDITIONS ARE NOT AVAILABLE.

MNZ060>063-068>070-262100-
   Twin Cities Metro

CITY           SKY/WX    TMP DP  RH WIND       PRES   REMARKS
TWIN CITIES    PTSUNNY   38  16  40 W22G31    29.79S
ST PAUL        PTSUNNY   40  18  41 W20G29    29.80S
CRYSTAL        MOSUNNY   36  13  38 W9        29.79R
BLAINE         PTSUNNY   37  16  41 W17G26    29.79R
LAKEVILLE      SUNNY     36  21  55 W18G24    29.81R
EDEN PRAIRIE   MOSUNNY   38  17  42 W15G26    29.80R
SOUTH ST PAUL  PTSUNNY   39  16  38 W15G24    29.79R
LAKE ELMO      PTSUNNY   39  19  45 W12G22    29.79S
$$
MNZ001>005-007-008-013>017-022>024-027-028-262100-
   Northwest Minnesota

CITY           SKY/WX    TMP DP  RH WIND       PRES   REMARKS
BEMIDJI        SUNNY     20   4  50 NW8       29.79S WCI  10
HALLOCK        SUNNY     16   7  67 SW6       29.83S WCI   7
ROSEAU         SUNNY     16   7  67 W8        29.80S WCI   5
WARROAD        SUNNY     16   7  67 W14       29.79S WCI   1
THIEF RVR FALL   N/A    N/A N/A N/A MISG        N/A
CROOKSTON      SUNNY     16   7  67 W7        29.87S WCI   6
FOSSTON        SUNNY     21   7  53 W7        29.82S WCI  13
DETROIT LAKES  SUNNY     19  10  68 NW8       29.83S WCI   9
MOORHEAD       SUNNY     18   9  68 SW3       29.89R
PARK RAPIDS    SUNNY     21   5  50 W10       29.79R WCI  10
MAHNOMEN       FAIR      18   9  68 W7        29.83S WCI   8
$$
MNZ006-009>011-018-025>026-262100-
   North Central Minnesota

CITY           SKY/WX    TMP DP  RH WIND       PRES   REMARKS
BAUDETTE       SUNNY     18   2  49 NW10      29.76F WCI   6
FLAG ISLAND    SUNNY     18   1  49 NW14      29.75S WCI   4
INTL FALLS     MOSUNNY   17   0  47 W12       29.77R WCI   4
WASKISH        SUNNY     18   5  57 SW9       29.79F WCI   6
BIG FORK       SUNNY     21   1  42 W7        29.76S WCI  13
LONGVILLE      SUNNY     21   3  45 NW6       29.81R WCI  14
GRAND RAPIDS   SUNNY     23   5  46 W12       29.80R WCI  12
CRANE LAKE     MOSUNNY   16   0  48 NW10G16   29.77S WCI   3
ORR            SUNNY     18   0  45 NW14      29.73R WCI   4
COOK           SUNNY     19   0  42 W15       29.76R WCI   5
WALKER         FAIR      20   2  46 W8        29.80R WCI  10
$$
MNZ012-019>021-037-262100-
   Northeast Minnesota

CITY           SKY/WX    TMP DP  RH WIND       PRES   REMARKS
DULUTH         MOSUNNY   21   3  45 NW16G23   29.73R WCI   7
ELY            MOSUNNY   19   0  42 NW10G17   29.71R WCI   8
HIBBING        SUNNY     18   1  47 NW21      29.75R WCI   1
EVELETH        SUNNY     20  -4  35 NW8G20    29.75R WCI  10
DULUTH HARBOR  SUNNY     25  10  54 W15       29.80R WCI  12
TWO HARBORS    SUNNY     27   7  43 NW10G24   29.72R WCI  17
SILVER BAY     SUNNY     25   3  39 W7G17     29.71R WCI  17
GRAND MARAIS     N/A     25   3  38 NW14G29   29.69R WCI  13
G MARAIS ARPRT SUNNY     16   0  48 W13G23    29.61R WCI   2
$$
MNZ029>031-032-039>041-046>048-054>057-064-262100-
   West Central Minnesota

CITY           SKY/WX    TMP DP  RH WIND       PRES   REMARKS
FERGUS FALLS   SUNNY     16  10  79 NW8       29.90R WCI   5
WHEATON        SUNNY     19  12  73 NW6       29.90R WCI  11
MORRIS         SUNNY     25  12  58 N8        29.85S WCI  16
ALEXANDRIA     SUNNY     23  11  60 N7        29.82S WCI  15
ELBOW LAKE     FAIR      16   9  72 NW9       29.86S WCI   5
WADENA         SUNNY     19   9  63 W8        29.81S WCI   9
GLENWOOD       SUNNY     27  12  54 NW9       29.83S WCI  17
APPLETON       SUNNY     28  12  50 N8        29.87R WCI  20
BENSON         SUNNY     30   9  40 N9        29.87S WCI  22
ORTONVILLE     SUNNY     27  14  59 CALM      29.86R
MADISON        SUNNY     30  18  59 W3        29.87R
WILLMAR        FAIR      30  18  59 NW12      29.86R WCI  21
$$
MNZ033>034-036-042>043-049>051-058-059-262100-
   Central Minnesota

CITY           SKY/WX    TMP DP  RH WIND       PRES   REMARKS
ST CLOUD       MOSUNNY   31  13  47 NW14      29.81R WCI  21
SAUK CENTRE    FAIR      26  10  51 NW13      29.82S WCI  15
PAYNESVILLE    SUNNY     29  14  53 NW10      29.83R WCI  20
AITKIN         SUNNY     27   0  31 W5        29.79R WCI  21
PINE RIVER     SUNNY     21   7  53 NW3       29.83S
BRAINERD       SUNNY     23   4  44 N9        29.81R WCI  13
STAPLES        SUNNY     21   9  58 W7        29.81S WCI  13
LONG PRAIRIE   FAIR      27   5  39 W12       29.82R WCI  16
LITTLE FALLS   SUNNY     28   5  37 W9        29.82R WCI  20
LITCHFIELD     SUNNY     34  16  47 NW12      29.83R WCI  25
BUFFALO        MOSUNNY   34  15  45 NW12G20   29.82S WCI  25
MAPLE LAKE     SUNNY     35  15  45 NW10G18   29.82S WCI  27
HUTCHINSON     SUNNY     34  19  55 W14       29.84R WCI  24
$$
MNZ037-044-045-052-053-262100-
   East Central Minnesota

CITY           SKY/WX    TMP DP  RH WIND       PRES   REMARKS
PRINCETON      SUNNY     34  14  44 NW13G18   29.81R WCI  25
MORA           SUNNY     28  12  50 NW12G18   29.82R WCI  18
CAMBRIDGE      MOSUNNY   34  18  51 W15       29.79R WCI  24
RUSH CITY      SUNNY     32  12  43 NW12G20   29.80R WCI  23
MOOSE LAKE     SUNNY     27   5  39 NW9G17    29.78R WCI  17
HINCKLEY       FAIR      30  12  47 W12G17    29.79R WCI  21
CLOQUET        LGT SNOW  21   0  39 NW17G25   29.76R WCI   7
MCGREGOR       SUNNY     25   3  39 NW9       29.79R WCI  15
$$
MNZ071>073-080-081-089-090-097-098-262100-
   Southwest Minnesota

CITY           SKY/WX    TMP DP  RH WIND       PRES   REMARKS
MONTEVIDEO     SUNNY     32  19  59 N6        29.88R WCI  26
GRANITE FALLS  SUNNY     32  21  65 W9        29.88S WCI  24
CANBY          SUNNY     33  21  61 CALM      29.86F
MARSHALL       SUNNY     32  21  64 NW7       29.85S WCI  26
REDWOOD FALLS  SUNNY     34  16  47 NW10      29.86R WCI  26
OLIVIA         SUNNY     32  21  64 NW10G17   29.85S WCI  24
PIPESTONE      MOSUNNY   37  19  48 W14       29.82S
WINDOM         MOSUNNY   39  25  56 W15       29.84R
WORTHINGTON    MOSUNNY   34  27  75 W12       29.85F WCI  25
JACKSON        SUNNY     34  27  75 W13       29.86R WCI  25
TRACY          SUNNY     36  26  67 N7        29.84S
SLAYTON        MOSUNNY   37  22  56 W15G23    29.83S
$$
MNZ065>067-074>077-082>085-091>093-262100-
   South Central Minnesota

CITY           SKY/WX    TMP DP  RH WIND       PRES   REMARKS
MANKATO          N/A     37  23  56 W15       29.83F
NEW ULM        SUNNY     36  19  51 W13       29.85R
ST JAMES       MOSUNNY   37  27  65 W7        29.86S
FAIRMONT       SUNNY     34  25  69 SW10      29.86S WCI  26
GLENCOE        SUNNY     34  23  64 W9        29.82R WCI  27
FARIBAULT      MOSUNNY   37  25  60 SW12      29.83R
OWATONNA       SUNNY     34  25  69 SW10      29.84R WCI  26
WASECA         SUNNY     32  27  80 W6        29.86R WCI  26
ALBERT LEA     SUNNY     30  23  74 SW8       29.85S WCI  23
$$
MNZ078>079-086>088-094>096-262100-
   Southeast Minnesota

CITY           SKY/WX    TMP DP  RH WIND       PRES   REMARKS
ROCHESTER      SUNNY     30  24  78 W15       29.83R WCI  19
RED WING       MOSUNNY   36  21  55 W15       29.80F
STANTON        SUNNY     37  24  59 W10       29.81R
WINONA         CLOUDY    36  25  64 W6        29.84S
AUSTIN         SUNNY     30  21  69 W10       29.85S WCI  21
PRESTON        SUNNY     31  22  68 W12       29.85R WCI  22
$$
ABBREVIATIONS USED IN REMARKS
   TC - TEMPERATURES IN CELSIUS
  WCI - WIND CHILL INDEX
   HX - HEAT INDEX
  VSB - VISIBILITY
$$




USA.gov is the U.S. government's official web portal to all federal, state and local government web resources and services.